{"data":{"norad_id":49160,"intl_designator":"2021-082AG","name":"STARLINK-3095","alt_names":[],"object_type":"PAYLOAD","status":"ACTIVE","operator":null,"country":"US","launch_date":"2021-09-14","launch_site_code":"AFWTR","launch_vehicle":null,"mission":null,"orbit_class":"UNKNOWN","rcs_meters":null,"size_class":null,"mass_kg":null,"dimensions":null,"purposes":["comms"],"wikipedia_slug":null,"has_3d_model":false,"image_url":null,"decayed_at":null,"tle_current":{"epoch":"2026-05-25T02:47:51.692928Z","epoch_age_seconds":62037,"freshness":"FRESH","line1":"1 49160U 21082AG  26145.11657052 -.00000482  00000+0 -32593-4 0  9999","line2":"2 49160  69.9994 101.7396 0003426 260.7228  99.3544 14.98336377258490","mean_motion":14.98336377,"eccentricity":0.0003426,"inclination_deg":69.9994,"raan_deg":101.7396,"arg_perigee_deg":260.7228,"mean_anomaly_deg":99.3544,"bstar":-3.2593e-5,"rev_number":25849,"period_min":96.106590089149,"perigee_km":569.65504133963,"apogee_km":574.41729999617,"semimajor_km":6950.1731706679,"source":"CELESTRAK","updated_at":"2026-05-25T13:38:16.790321Z"}}}